Location: Unspecified
(52.1384°N, 8.6525°W)
Time: 11:30:34
(UTC+00:00)

XW-2F - Pass Details

Date: 21 January 2021
Orbit: 500 x 519 km, 97.5° (Epoch: 24 February)

Event Time Altitude Azimuth Distance (km) Brightness Sun altitude
Rises 18:39:52 0° 200° (SSW) 2,605 ? -14.5°
Reaches altitude 10° 18:42:19 10° 216° (SW) 1,729 ? -14.9°
Maximum altitude 18:45:14 21° 268° (W) 1,180 ? -15.3°
Drops below altitude 10° 18:48:11 10° 319° (NW) 1,751 ? -15.8°
Sets 18:50:41 0° 336° (NNW) 2,648 ? -16.1°
